NOZ8NE ENGM-EGPH

Flight info

Callsign NOZ8NE
Flight time N/A
Altitude 38000
Route ATLAP DCT IPMOD DCT KLONN DCT ADN DCT NAXIL/N0369F240 P600 PTH
Aircraft B738/M-SDE2E3FGHIRWXY/LB1

Departure

Time N/A
Airport Oslo-Gardermoen International Airport (ENGM)

Arrival

Time 2026-05-04 17:38
Airport Edinburgh Airport (EGPH)
Time Latitude Longitude Altitude Speed Heading
2026-05-04 16:42 58.54766 3.40290 37947 ft 411 kts 244°
2026-05-04 16:43 58.52128 3.30588 37948 ft 411 kts 244°
2026-05-04 16:43 58.48154 3.16049 37946 ft 411 kts 244°
2026-05-04 16:45 58.40163 2.87087 37951 ft 412 kts 243°
2026-05-04 16:46 58.35307 2.63349 37954 ft 412 kts 251°
2026-05-04 16:47 58.31465 2.42871 37959 ft 413 kts 250°
2026-05-04 16:48 58.27545 2.22342 37954 ft 414 kts 250°
2026-05-04 16:49 58.23579 2.01801 37956 ft 414 kts 250°
2026-05-04 16:50 58.19579 1.81292 37971 ft 415 kts 250°
2026-05-04 16:51 58.16553 1.65921 37975 ft 415 kts 250°
2026-05-04 16:52 58.12499 1.45516 37975 ft 416 kts 250°
2026-05-04 16:53 58.09425 1.30181 37980 ft 416 kts 249°
2026-05-04 16:54 58.05290 1.09732 37976 ft 417 kts 249°
2026-05-04 16:55 57.99006 0.79057 37974 ft 418 kts 249°
2026-05-04 16:56 57.93698 0.53503 37984 ft 420 kts 249°
2026-05-04 16:57 57.90479 0.38165 37983 ft 420 kts 249°
2026-05-04 16:58 57.86167 0.17793 37991 ft 421 kts 249°
2026-05-04 17:00 57.79600 -0.12848 37993 ft 422 kts 248°
2026-05-04 17:01 57.74056 -0.38370 37990 ft 423 kts 248°
2026-05-04 17:02 57.69573 -0.58771 37991 ft 424 kts 248°
2026-05-04 17:03 57.66196 -0.74017 37992 ft 425 kts 248°
2026-05-04 17:03 57.62785 -0.89305 37991 ft 426 kts 248°
2026-05-04 17:04 57.58196 -1.09695 37994 ft 426 kts 248°
2026-05-04 17:05 57.53573 -1.30037 37475 ft 433 kts 248°
2026-05-04 17:06 57.51232 -1.40265 36580 ft 424 kts 248°
2026-05-04 17:06 57.50077 -1.45292 36148 ft 421 kts 248°
2026-05-04 17:07 57.47791 -1.55206 35321 ft 414 kts 248°
2026-05-04 17:07 57.47040 -1.58454 35050 ft 412 kts 248°
2026-05-04 17:07 57.45533 -1.64960 34505 ft 408 kts 248°
2026-05-04 17:07 57.44410 -1.69792 34074 ft 406 kts 248°
2026-05-04 17:08 57.43293 -1.74588 33609 ft 404 kts 248°
2026-05-04 17:08 57.41074 -1.84085 32749 ft 398 kts 248°
2026-05-04 17:08 57.39974 -1.88775 32341 ft 394 kts 248°
2026-05-04 17:09 57.38897 -1.93363 31946 ft 391 kts 248°
2026-05-04 17:09 57.37813 -1.97968 31546 ft 389 kts 248°
2026-05-04 17:09 57.36732 -2.02548 31153 ft 386 kts 248°
2026-05-04 17:10 57.34590 -2.11609 30384 ft 382 kts 248°
2026-05-04 17:10 57.31153 -2.24785 29111 ft 378 kts 236°
2026-05-04 17:11 57.29456 -2.28473 28707 ft 376 kts 226°
2026-05-04 17:11 57.27441 -2.31554 28289 ft 375 kts 218°
2026-05-04 17:11 57.23193 -2.37037 27512 ft 370 kts 217°
2026-05-04 17:12 57.21084 -2.39718 27137 ft 367 kts 217°
2026-05-04 17:12 57.16930 -2.45043 26393 ft 361 kts 217°
2026-05-04 17:13 57.10826 -2.52931 25280 ft 353 kts 217°
2026-05-04 17:14 57.04865 -2.60624 24189 ft 347 kts 217°
2026-05-04 17:14 57.02892 -2.63166 23825 ft 345 kts 217°
2026-05-04 17:14 56.98975 -2.68201 23019 ft 342 kts 217°
2026-05-04 17:15 56.97033 -2.70689 22631 ft 339 kts 217°
2026-05-04 17:15 56.93194 -2.75572 21885 ft 333 kts 217°
2026-05-04 17:16 56.89405 -2.80348 21169 ft 328 kts 217°
2026-05-04 17:16 56.83842 -2.87386 20135 ft 321 kts 217°
2026-05-04 17:17 56.82012 -2.89699 19801 ft 319 kts 217°
2026-05-04 17:17 56.76583 -2.96538 18800 ft 314 kts 217°
2026-05-04 17:18 56.74790 -2.98799 18473 ft 312 kts 217°
2026-05-04 17:18 56.71250 -3.03265 17750 ft 310 kts 217°
2026-05-04 17:19 56.67729 -3.07687 17059 ft 306 kts 217°
2026-05-04 17:19 56.64247 -3.12034 16402 ft 302 kts 217°
2026-05-04 17:20 56.60808 -3.16319 15751 ft 298 kts 217°
2026-05-04 17:20 56.57405 -3.20551 15113 ft 295 kts 217°
2026-05-04 17:20 56.55713 -3.22653 14806 ft 294 kts 217°
2026-05-04 17:21 56.52350 -3.26825 14174 ft 292 kts 217°
2026-05-04 17:21 56.49007 -3.30965 13532 ft 290 kts 217°
2026-05-04 17:22 56.47342 -3.33022 13194 ft 289 kts 217°
2026-05-04 17:22 56.45686 -3.35063 12884 ft 287 kts 217°
2026-05-04 17:23 56.40826 -3.41239 11924 ft 283 kts 218°
2026-05-04 17:23 56.39234 -3.43314 11625 ft 282 kts 218°
2026-05-04 17:23 56.36072 -3.47423 11026 ft 279 kts 218°
2026-05-04 17:24 56.34500 -3.49458 10740 ft 277 kts 218°
2026-05-04 17:24 56.29871 -3.55435 10083 ft 266 kts 218°
2026-05-04 17:25 56.28380 -3.57356 9868 ft 263 kts 218°
2026-05-04 17:25 56.25423 -3.61163 9326 ft 259 kts 218°
2026-05-04 17:26 56.22491 -3.64927 9050 ft 261 kts 218°
2026-05-04 17:26 56.18368 -3.71321 8003 ft 256 kts 236°
2026-05-04 17:27 56.16275 -3.76476 7447 ft 255 kts 235°
2026-05-04 17:27 56.14179 -3.81478 7104 ft 244 kts 235°
2026-05-04 17:28 56.11321 -3.84234 6837 ft 249 kts 177°
2026-05-04 17:29 56.07905 -3.77880 6341 ft 264 kts 97°
2026-05-04 17:29 56.07298 -3.68166 5639 ft 257 kts 94°
2026-05-04 17:30 56.06821 -3.58794 5034 ft 249 kts 90°
2026-05-04 17:31 56.06738 -3.52637 4668 ft 246 kts 89°
2026-05-04 17:31 56.06632 -3.43480 4110 ft 241 kts 89°
2026-05-04 17:32 56.06578 -3.38734 3987 ft 215 kts 89°
2026-05-04 17:33 56.06481 -3.31268 4000 ft 198 kts 89°
2026-05-04 17:33 56.06449 -3.28813 4008 ft 197 kts 89°
2026-05-04 17:34 56.06333 -3.21372 4003 ft 203 kts 89°
2026-05-04 17:34 56.06011 -3.18947 3983 ft 201 kts 123°
2026-05-04 17:35 56.02344 -3.18074 3309 ft 196 kts 208°
2026-05-04 17:35 56.00512 -3.21230 2572 ft 175 kts 236°
2026-05-04 17:35 55.99854 -3.22948 2182 ft 162 kts 240°
2026-05-04 17:36 55.99300 -3.24552 2003 ft 140 kts 241°
2026-05-04 17:36 55.98786 -3.26048 1668 ft 142 kts 242°
2026-05-04 17:36 55.98295 -3.27528 1327 ft 136 kts 242°
2026-05-04 17:36 55.97827 -3.28964 1039 ft 132 kts 242°
2026-05-04 17:37 55.97357 -3.30298 836 ft 126 kts 240°
2026-05-04 17:37 55.96890 -3.31654 687 ft 128 kts 240°
2026-05-04 17:37 55.96427 -3.33033 537 ft 130 kts 240°
2026-05-04 17:37 55.95962 -3.34404 357 ft 127 kts 241°
2026-05-04 17:38 55.95512 -3.35729 165 ft 123 kts 241°
2026-05-04 17:38 55.95107 -3.36934 113 ft 85 kts 239°
2026-05-04 17:38 55.94961 -3.37365 110 ft 23 kts 238°
2026-05-04 17:38 55.94877 -3.37612 113 ft 25 kts 239°
2026-05-04 17:39 55.94656 -3.38019 112 ft 17 kts 148°
2026-05-04 17:39 55.94595 -3.37934 113 ft 10 kts 115°
2026-05-04 17:39 55.94613 -3.37818 112 ft 10 kts 59°
2026-05-04 17:40 55.94647 -3.37714 112 ft 10 kts 59°
2026-05-04 17:40 55.94682 -3.37615 114 ft 10 kts 58°
2026-05-04 17:40 55.94731 -3.37470 112 ft 19 kts 59°
2026-05-04 17:40 55.94807 -3.37243 114 ft 22 kts 58°
2026-05-04 17:41 55.94878 -3.37036 113 ft 19 kts 58°
2026-05-04 17:41 55.94945 -3.36842 114 ft 18 kts 58°
2026-05-04 17:41 55.95008 -3.36654 114 ft 17 kts 59°
2026-05-04 17:41 55.95069 -3.36473 113 ft 17 kts 58°
2026-05-04 17:42 55.95128 -3.36299 115 ft 16 kts 63°
2026-05-04 17:42 55.95114 -3.36112 115 ft 14 kts 108°
2026-05-04 17:42 55.95078 -3.35955 114 ft 13 kts 129°
2026-05-04 17:42 55.95037 -3.35990 114 ft 5 kts 249°
2026-05-04 17:43 55.95025 -3.36047 112 ft 5 kts 248°
2026-05-04 17:43 55.95021 -3.36065 112 ft 0 kts 248°